StationID,Date,MaxTemp,MinTemp,Precipitation,Snowfall,SnowDepth
"CA001125779","1991-12-01",37.40,30.20,0.00,0.00,
"CA001125779","1991-12-02",39.20,30.20,0.00,0.00,
"CA001125779","1991-12-03",38.30,32.00,10.00,0.00,
"CA001125779","1991-12-04",42.80,33.80,10.00,0.00,
"CA001125779","1991-12-05",46.40,37.40,13.00,0.00,
"CA001125779","1991-12-06",46.40,28.40,0.00,0.00,
"CA001125779","1991-12-07",43.70,28.40,13.00,0.00,
"CA001125779","1991-12-08",44.60,32.00,0.00,0.00,
"CA001125779","1991-12-09",50.90,32.00,0.00,0.00,
"CA001125779","1991-12-10",39.20,23.00,0.00,0.00,
"CA001125779","1991-12-11",41.00,33.80,30.00,30.00,
"CA001125779","1991-12-12",41.00,23.00,0.00,0.00,
"CA001125779","1991-12-13",35.60,24.80,20.00,20.00,
"CA001125779","1991-12-14",32.00,17.60,0.00,0.00,
"CA001125779","1991-12-15",30.20,14.00,0.00,0.00,
"CA001125779","1991-12-16",32.00,14.00,0.00,0.00,
"CA001125779","1991-12-17",30.20,24.80,0.00,0.00,
"CA001125779","1991-12-18",32.00,19.40,10.00,10.00,
"CA001125779","1991-12-19",37.40,19.40,0.00,0.00,
"CA001125779","1991-12-20",35.60,28.40,0.00,0.00,
"CA001125779","1991-12-21",35.60,32.00,0.00,0.00,
"CA001125779","1991-12-22",35.60,31.10,0.00,0.00,
"CA001125779","1991-12-23",35.60,32.00,0.00,0.00,
"CA001125779","1991-12-24",39.20,35.60,13.00,0.00,
"CA001125779","1991-12-25",37.40,32.00,0.00,0.00,
"CA001125779","1991-12-26",37.40,30.20,0.00,0.00,
"CA001125779","1991-12-27",39.20,30.20,0.00,0.00,
"CA001125779","1991-12-28",36.50,21.20,20.00,20.00,
"CA001125779","1991-12-29",35.60,30.20,20.00,0.00,
"CA001125779","1991-12-30",39.20,30.20,43.00,0.00,
"CA001125779","1991-12-31",42.80,32.00,0.00,0.00,0.00
"CA001125779","1992-01-01",41.00,37.40,0.00,0.00,0.00
"CA001125779","1992-01-02",41.00,31.10,0.00,0.00,0.00
"CA001125779","1992-01-03",36.50,26.60,20.00,0.00,0.00
"CA001125779","1992-01-04",39.20,32.00,21.00,0.00,0.00
"CA001125779","1992-01-05",35.60,32.00,20.00,10.00,0.00
"CA001125779","1992-01-06",37.40,30.20,0.00,0.00,0.00
"CA001125779","1992-01-07",33.80,26.60,0.00,0.00,0.00
"CA001125779","1992-01-08",32.00,21.20,10.00,10.00,0.00
"CA001125779","1992-01-09",35.60,28.40,0.00,0.00,10.00
"CA001125779","1992-01-10",41.00,32.00,0.00,0.00,0.00
"CA001125779","1992-01-11",37.40,30.20,0.00,0.00,0.00
"CA001125779","1992-01-12",32.00,19.40,10.00,10.00,0.00
"CA001125779","1992-01-13",35.60,23.90,0.00,0.00,10.00
"CA001125779","1992-01-14",33.80,29.30,0.00,0.00,0.00
"CA001125779","1992-01-15",37.40,30.20,10.00,10.00,0.00
"CA001125779","1992-01-16",37.40,28.40,0.00,0.00,10.00
"CA001125779","1992-01-17",36.50,26.60,0.00,0.00,10.00
"CA001125779","1992-01-18",36.50,30.20,0.00,0.00,0.00
"CA001125779","1992-01-19",36.50,32.00,0.00,0.00,0.00
"CA001125779","1992-01-20",32.90,32.00,0.00,0.00,0.00
"CA001125779","1992-01-21",33.80,30.20,0.00,0.00,0.00
"CA001125779","1992-01-22",37.40,21.20,0.00,0.00,0.00
"CA001125779","1992-01-23",46.40,31.10,0.00,0.00,0.00
"CA001125779","1992-01-24",46.40,30.20,0.00,0.00,0.00
"CA001125779","1992-01-25",48.20,35.60,0.00,0.00,0.00
"CA001125779","1992-01-26",41.00,21.20,42.00,0.00,0.00
"CA001125779","1992-01-27",46.40,37.40,43.00,0.00,0.00
"CA001125779","1992-01-28",50.00,39.20,10.00,0.00,0.00
"CA001125779","1992-01-29",50.00,35.60,3.00,0.00,0.00
"CA001125779","1992-01-30",55.40,44.60,0.00,0.00,0.00
"CA001125779","1992-01-31",53.60,44.60,0.00,0.00,0.00
"CA001125779","1992-02-01",50.00,39.20,0.00,0.00,0.00
"CA001125779","1992-02-02",50.00,34.70,0.00,0.00,0.00
"CA001125779","1992-02-03",53.60,32.00,0.00,0.00,0.00
"CA001125779","1992-02-04",48.20,23.00,0.00,0.00,0.00
"CA001125779","1992-02-05",44.60,24.80,0.00,0.00,0.00
"CA001125779","1992-02-06",37.40,17.60,0.00,0.00,0.00
"CA001125779","1992-02-07",37.40,28.40,50.00,50.00,0.00
"CA001125779","1992-02-08",35.60,30.20,50.00,50.00,50.00
"CA001125779","1992-02-09",41.00,32.00,0.00,0.00,30.00
"CA001125779","1992-02-10",41.00,34.70,33.00,0.00,0.00
"CA001125779","1992-02-11",44.60,33.80,11.00,0.00,0.00
"CA001125779","1992-02-12",46.40,32.00,31.00,0.00,0.00
"CA001125779","1992-02-13",50.00,40.10,0.00,0.00,0.00
"CA001125779","1992-02-14",51.80,39.20,2.00,0.00,0.00
"CA001125779","1992-02-15",41.00,39.20,91.00,0.00,0.00
"CA001125779","1992-02-16",48.20,33.80,0.00,0.00,0.00
"CA001125779","1992-02-17",42.80,33.80,43.00,0.00,0.00
"CA001125779","1992-02-18",42.80,37.40,63.00,0.00,0.00
"CA001125779","1992-02-19",46.40,24.80,40.00,40.00,0.00
"CA001125779","1992-02-20",39.20,30.20,40.00,0.00,40.00
"CA001125779","1992-02-21",46.40,37.40,53.00,0.00,0.00
"CA001125779","1992-02-22",57.20,37.40,0.00,0.00,0.00
"CA001125779","1992-02-23",46.40,24.80,23.00,0.00,0.00
"CA001125779","1992-02-24",46.40,36.50,0.00,0.00,0.00
"CA001125779","1992-02-25",50.00,33.80,0.00,0.00,0.00
"CA001125779","1992-02-26",46.40,32.00,0.00,0.00,0.00
"CA001125779","1992-02-27",46.40,39.20,0.00,0.00,0.00
"CA001125779","1992-02-28",44.60,39.20,0.00,0.00,0.00
"CA001125779","1992-02-29",48.20,40.10,0.00,0.00,0.00
"CA001125779","1992-03-01",51.80,37.40,41.00,0.00,0.00
"CA001125779","1992-03-02",55.40,33.80,0.00,0.00,0.00
"CA001125779","1992-03-03",46.40,28.40,53.00,0.00,0.00
"CA001125779","1992-03-04",51.80,41.00,0.00,0.00,0.00
"CA001125779","1992-03-05",60.80,35.60,0.00,0.00,0.00
"CA001125779","1992-03-06",57.20,35.60,0.00,0.00,0.00
"CA001125779","1992-03-07",57.20,41.00,0.00,0.00,0.00
"CA001125779","1992-03-08",57.20,37.40,0.00,0.00,0.00
"CA001125779","1992-03-09",59.00,24.80,0.00,0.00,0.00
"CA001125779","1992-03-10",60.80,24.80,0.00,0.00,0.00
"CA001125779","1992-03-11",66.20,25.70,0.00,0.00,0.00
"CA001125779","1992-03-12",66.20,26.60,0.00,0.00,0.00
"CA001125779","1992-03-13",68.00,28.40,0.00,0.00,0.00
"CA001125779","1992-03-14",68.00,32.00,0.00,0.00,0.00
"CA001125779","1992-03-15",60.80,33.80,0.00,0.00,0.00
"CA001125779","1992-03-16",61.70,34.70,82.00,0.00,0.00
"CA001125779","1992-03-17",59.00,41.00,4.00,0.00,0.00
"CA001125779","1992-03-18",60.80,34.70,0.00,0.00,0.00
"CA001125779","1992-03-19",59.00,32.00,0.00,0.00,0.00
"CA001125779","1992-03-20",59.00,30.20,0.00,0.00,0.00
"CA001125779","1992-03-21",59.00,24.80,0.00,0.00,0.00
"CA001125779","1992-03-22",62.60,24.80,0.00,0.00,0.00
"CA001125779","1992-03-23",62.60,26.60,0.00,0.00,0.00
"CA001125779","1992-03-24",66.20,28.40,0.00,0.00,0.00
"CA001125779","1992-03-25",68.00,28.40,0.00,0.00,0.00
"CA001125779","1992-03-26",68.00,32.00,0.00,0.00,0.00
"CA001125779","1992-03-27",58.10,41.00,0.00,0.00,0.00
"CA001125779","1992-03-28",53.60,23.90,0.00,0.00,0.00
"CA001125779","1992-03-29",63.50,24.80,0.00,0.00,0.00
"CA001125779","1992-03-30",66.20,30.20,0.00,0.00,0.00
"CA001125779","1992-03-31",68.00,32.00,0.00,0.00,0.00
"CA001125779","1992-04-01",73.40,35.60,0.00,0.00,0.00
"CA001125779","1992-04-02",77.00,32.00,0.00,0.00,0.00
"CA001125779","1992-04-03",64.40,46.40,0.00,0.00,0.00
"CA001125779","1992-04-04",59.00,42.80,0.00,0.00,0.00
"CA001125779","1992-04-05",51.80,33.80,0.00,0.00,0.00
"CA001125779","1992-04-06",53.60,28.40,0.00,0.00,0.00
"CA001125779","1992-04-07",54.50,19.40,0.00,0.00,0.00
"CA001125779","1992-04-08",59.00,24.80,0.00,0.00,0.00
"CA001125779","1992-04-09",59.00,,0.00,0.00,0.00
"CA001125779","1992-04-10",59.00,28.40,0.00,0.00,0.00
"CA001125779","1992-04-11",59.00,28.40,0.00,0.00,0.00
"CA001125779","1992-04-12",68.00,33.80,30.00,0.00,0.00
"CA001125779","1992-04-13",57.20,44.60,95.00,0.00,0.00
"CA001125779","1992-04-14",68.00,41.00,0.00,0.00,0.00
"CA001125779","1992-04-15",66.20,37.40,30.00,0.00,0.00
"CA001125779","1992-04-16",59.00,44.60,250.00,0.00,0.00
"CA001125779","1992-04-17",64.40,46.40,0.00,0.00,0.00
"CA001125779","1992-04-18",62.60,48.20,0.00,0.00,0.00
"CA001125779","1992-04-19",68.00,37.40,0.00,0.00,0.00
"CA001125779","1992-04-20",68.00,44.60,0.00,0.00,0.00
"CA001125779","1992-04-21",64.40,33.80,10.00,0.00,0.00
"CA001125779","1992-04-22",55.40,33.80,0.00,0.00,0.00
"CA001125779","1992-04-23",60.80,28.40,0.00,0.00,0.00
"CA001125779","1992-04-24",68.00,30.20,0.00,0.00,0.00
"CA001125779","1992-04-25",72.50,32.00,0.00,0.00,0.00
"CA001125779","1992-04-26",75.20,38.30,0.00,0.00,0.00
"CA001125779","1992-04-27",71.60,44.60,13.00,0.00,0.00
"CA001125779","1992-04-28",77.00,42.80,10.00,0.00,0.00
"CA001125779","1992-04-29",68.00,53.60,31.00,0.00,0.00
"CA001125779","1992-04-30",64.40,53.60,0.00,0.00,0.00
"CA001125779","1992-05-01",68.00,30.20,0.00,0.00,0.00
"CA001125779","1992-05-02",68.00,44.60,0.00,0.00,0.00
"CA001125779","1992-05-03",80.60,35.60,0.00,0.00,0.00
"CA001125779","1992-05-04",86.00,38.30,0.00,0.00,0.00
"CA001125779","1992-05-05",89.60,41.00,0.00,0.00,0.00
"CA001125779","1992-05-06",90.50,44.60,0.00,0.00,0.00
"CA001125779","1992-05-07",86.00,48.20,0.00,0.00,0.00
"CA001125779","1992-05-08",66.20,51.80,0.00,0.00,0.00
"CA001125779","1992-05-09",61.70,41.00,0.00,0.00,0.00
"CA001125779","1992-05-10",64.40,39.20,0.00,0.00,0.00
"CA001125779","1992-05-11",62.60,37.40,0.00,0.00,0.00
"CA001125779","1992-05-12",68.00,33.80,0.00,0.00,0.00
"CA001125779","1992-05-13",73.40,32.90,0.00,0.00,0.00
"CA001125779","1992-05-14",78.80,35.60,0.00,0.00,0.00
"CA001125779","1992-05-15",68.00,46.40,0.00,0.00,0.00
"CA001125779","1992-05-16",77.90,32.00,0.00,0.00,0.00
"CA001125779","1992-05-17",84.20,35.60,0.00,0.00,0.00
"CA001125779","1992-05-18",80.60,48.20,0.00,0.00,0.00
"CA001125779","1992-05-19",77.00,44.60,0.00,0.00,0.00
"CA001125779","1992-05-20",59.90,50.00,3.00,0.00,0.00
"CA001125779","1992-05-21",68.00,42.80,0.00,0.00,0.00
"CA001125779","1992-05-22",71.60,35.60,0.00,0.00,0.00
"CA001125779","1992-05-23",78.80,48.20,0.00,0.00,0.00
"CA001125779","1992-05-24",89.60,50.90,0.00,0.00,0.00
"CA001125779","1992-05-25",95.00,46.40,71.00,0.00,0.00
"CA001125779","1992-05-26",77.00,57.20,0.00,0.00,0.00
"CA001125779","1992-05-27",78.80,51.80,0.00,0.00,0.00
"CA001125779","1992-05-28",78.80,48.20,0.00,0.00,0.00
"CA001125779","1992-05-29",77.00,50.90,0.00,0.00,0.00
"CA001125779","1992-05-30",80.60,48.20,0.00,0.00,0.00
"CA001125779","1992-05-31",89.60,44.60,0.00,0.00,0.00
"CA001125779","1992-06-01",86.00,52.70,4.00,0.00,0.00
"CA001125779","1992-06-02",73.40,60.80,0.00,0.00,0.00
"CA001125779","1992-06-03",78.80,37.40,0.00,0.00,0.00
"CA001125779","1992-06-04",77.00,42.80,0.00,0.00,0.00
"CA001125779","1992-06-05",80.60,44.60,0.00,0.00,0.00
"CA001125779","1992-06-06",88.70,42.80,0.00,0.00,0.00
"CA001125779","1992-06-07",88.70,54.50,0.00,0.00,0.00
"CA001125779","1992-06-08",87.80,60.80,0.00,0.00,0.00
"CA001125779","1992-06-09",85.10,51.80,0.00,0.00,0.00
"CA001125779","1992-06-10",86.00,48.20,0.00,0.00,0.00
"CA001125779","1992-06-11",87.80,51.80,0.00,0.00,0.00
"CA001125779","1992-06-12",68.00,57.20,170.00,0.00,0.00
"CA001125779","1992-06-13",59.00,50.90,290.00,0.00,0.00
"CA001125779","1992-06-14",73.40,50.00,20.00,0.00,0.00
"CA001125779","1992-06-15",84.20,53.60,0.00,0.00,0.00
"CA001125779","1992-06-16",82.40,59.90,0.00,0.00,0.00
"CA001125779","1992-06-17",86.00,59.00,0.00,0.00,0.00
"CA001125779","1992-06-18",89.60,49.10,0.00,0.00,0.00
"CA001125779","1992-06-19",95.00,50.90,0.00,0.00,0.00
"CA001125779","1992-06-20",89.60,68.00,0.00,0.00,0.00
"CA001125779","1992-06-21",96.80,59.00,0.00,0.00,0.00
"CA001125779","1992-06-22",98.60,57.20,0.00,0.00,0.00
"CA001125779","1992-06-23",100.40,55.40,0.00,0.00,0.00
"CA001125779","1992-06-24",98.60,59.00,0.00,0.00,0.00
"CA001125779","1992-06-25",98.60,57.20,0.00,0.00,0.00
"CA001125779","1992-06-26",96.80,55.40,0.00,0.00,0.00
"CA001125779","1992-06-27",95.00,58.10,0.00,0.00,0.00
"CA001125779","1992-06-28",95.00,57.20,121.00,0.00,0.00
"CA001125779","1992-06-29",72.50,59.00,151.00,0.00,0.00
"CA001125779","1992-06-30",75.20,50.90,21.00,0.00,0.00
"CA001125779","1992-07-01",73.40,55.40,38.00,0.00,0.00
"CA001125779","1992-07-02",77.00,50.00,40.00,0.00,0.00
"CA001125779","1992-07-03",77.00,51.80,0.00,0.00,0.00
"CA001125779","1992-07-04",78.80,51.80,11.00,0.00,0.00
"CA001125779","1992-07-05",68.00,58.10,53.00,0.00,0.00
"CA001125779","1992-07-06",65.30,56.30,31.00,0.00,0.00
"CA001125779","1992-07-07",73.40,54.50,0.00,0.00,0.00
"CA001125779","1992-07-08",77.00,47.30,0.00,0.00,0.00
"CA001125779","1992-07-09",80.60,48.20,0.00,0.00,0.00
"CA001125779","1992-07-10",77.00,50.00,0.00,0.00,0.00
"CA001125779","1992-07-11",84.20,49.10,0.00,0.00,0.00
"CA001125779","1992-07-12",80.60,48.20,0.00,0.00,0.00
"CA001125779","1992-07-13",84.20,54.50,0.00,0.00,0.00
"CA001125779","1992-07-14",77.00,59.00,0.00,0.00,0.00
"CA001125779","1992-07-15",84.20,44.60,0.00,0.00,0.00
"CA001125779","1992-07-16",93.20,48.20,0.00,0.00,0.00
"CA001125779","1992-07-17",95.00,50.90,0.00,0.00,0.00
"CA001125779","1992-07-18",95.00,50.90,0.00,0.00,0.00
"CA001125779","1992-07-19",96.80,54.50,33.00,0.00,0.00
"CA001125779","1992-07-20",86.00,62.60,70.00,0.00,0.00
"CA001125779","1992-07-21",84.20,60.80,10.00,0.00,0.00
"CA001125779","1992-07-22",82.40,58.10,130.00,0.00,0.00
"CA001125779","1992-07-23",66.20,60.80,382.00,0.00,0.00
"CA001125779","1992-07-24",82.40,54.50,0.00,0.00,0.00
"CA001125779","1992-07-25",86.00,54.50,0.00,0.00,0.00
"CA001125779","1992-07-26",87.80,55.40,0.00,0.00,0.00
"CA001125779","1992-07-27",84.20,57.20,0.00,0.00,0.00
"CA001125779","1992-07-28",91.40,59.00,0.00,0.00,0.00
"CA001125779","1992-07-29",91.40,57.20,0.00,0.00,0.00
"CA001125779","1992-07-30",95.90,54.50,0.00,0.00,0.00
"CA001125779","1992-07-31",97.70,56.30,0.00,0.00,0.00
"CA001125779","1992-08-01",99.50,57.20,0.00,0.00,0.00
"CA001125779","1992-08-02",95.00,65.30,0.00,0.00,0.00
"CA001125779","1992-08-03",93.20,66.20,0.00,0.00,0.00
"CA001125779","1992-08-04",93.20,55.40,0.00,0.00,0.00
"CA001125779","1992-08-05",88.70,57.20,0.00,0.00,0.00
"CA001125779","1992-08-06",73.40,53.60,20.00,0.00,0.00
"CA001125779","1992-08-07",75.20,55.40,31.00,0.00,0.00
"CA001125779","1992-08-08",77.00,42.80,0.00,0.00,0.00
"CA001125779","1992-08-09",77.00,42.80,0.00,0.00,0.00
"CA001125779","1992-08-10",87.80,44.60,0.00,0.00,0.00
"CA001125779","1992-08-11",89.60,51.80,0.00,0.00,0.00
"CA001125779","1992-08-12",94.10,62.60,0.00,0.00,0.00
"CA001125779","1992-08-13",92.30,66.20,0.00,0.00,0.00
"CA001125779","1992-08-14",99.50,59.00,0.00,0.00,0.00
"CA001125779","1992-08-15",93.20,56.30,0.00,0.00,0.00
"CA001125779","1992-08-16",93.20,51.80,0.00,0.00,0.00
"CA001125779","1992-08-17",97.70,51.80,0.00,0.00,0.00
"CA001125779","1992-08-18",96.80,53.60,0.00,0.00,0.00
"CA001125779","1992-08-19",88.70,57.20,0.00,0.00,0.00
"CA001125779","1992-08-20",84.20,64.40,0.00,0.00,0.00
"CA001125779","1992-08-21",79.70,50.90,24.00,0.00,0.00
"CA001125779","1992-08-22",58.10,48.20,43.00,0.00,0.00
"CA001125779","1992-08-23",68.00,38.30,0.00,0.00,0.00
"CA001125779","1992-08-24",73.40,39.20,0.00,0.00,0.00
"CA001125779","1992-08-25",80.60,42.80,0.00,0.00,0.00
"CA001125779","1992-08-26",82.40,44.60,0.00,0.00,0.00
"CA001125779","1992-08-27",84.20,53.60,0.00,0.00,0.00
"CA001125779","1992-08-28",75.20,48.20,0.00,0.00,0.00
"CA001125779","1992-08-29",75.20,37.40,0.00,0.00,0.00
"CA001125779","1992-08-30",78.80,42.80,0.00,0.00,0.00
"CA001125779","1992-08-31",85.10,57.20,0.00,0.00,0.00
"CA001125779","1992-09-01",86.00,49.10,0.00,0.00,0.00
"CA001125779","1992-09-02",84.20,49.10,0.00,0.00,0.00
"CA001125779","1992-09-03",85.10,59.00,0.00,0.00,0.00
"CA001125779","1992-09-04",71.60,60.80,0.00,0.00,0.00
"CA001125779","1992-09-05",66.20,39.20,0.00,0.00,0.00
"CA001125779","1992-09-06",67.10,33.80,0.00,0.00,0.00
"CA001125779","1992-09-07",63.50,30.20,0.00,0.00,0.00
"CA001125779","1992-09-08",75.20,50.00,0.00,0.00,0.00
"CA001125779","1992-09-09",76.10,35.60,0.00,0.00,0.00
"CA001125779","1992-09-10",75.20,38.30,0.00,0.00,0.00
"CA001125779","1992-09-11",80.60,41.00,0.00,0.00,0.00
"CA001125779","1992-09-12",68.00,55.40,0.00,0.00,0.00
"CA001125779","1992-09-13",60.80,44.60,0.00,0.00,0.00
"CA001125779","1992-09-14",62.60,33.80,0.00,0.00,0.00
"CA001125779","1992-09-15",62.60,41.00,0.00,0.00,0.00
"CA001125779","1992-09-16",63.50,30.20,0.00,0.00,0.00
"CA001125779","1992-09-17",68.00,41.90,0.00,0.00,0.00
"CA001125779","1992-09-18",69.80,30.20,0.00,0.00,0.00
"CA001125779","1992-09-19",75.20,42.80,0.00,0.00,0.00
"CA001125779","1992-09-20",80.60,53.60,0.00,0.00,0.00
"CA001125779","1992-09-21",81.50,44.60,0.00,0.00,0.00
"CA001125779","1992-09-22",81.50,41.00,0.00,0.00,0.00
"CA001125779","1992-09-23",77.00,48.20,13.00,0.00,0.00
"CA001125779","1992-09-24",69.80,53.60,0.00,0.00,0.00
"CA001125779","1992-09-25",68.00,44.60,0.00,0.00,0.00
"CA001125779","1992-09-26",73.40,41.00,0.00,0.00,0.00
"CA001125779","1992-09-27",69.80,32.00,0.00,0.00,0.00
"CA001125779","1992-09-28",69.80,37.40,0.00,0.00,0.00
"CA001125779","1992-09-29",77.00,32.00,0.00,0.00,0.00
"CA001125779","1992-09-30",78.80,41.00,0.00,0.00,0.00
"CA001125779","1992-10-01",73.40,42.80,0.00,0.00,0.00
"CA001125779","1992-10-02",77.00,44.60,0.00,0.00,0.00
"CA001125779","1992-10-03",71.60,50.00,0.00,0.00,0.00
"CA001125779","1992-10-04",68.00,51.80,0.00,0.00,0.00
"CA001125779","1992-10-05",64.40,39.20,0.00,0.00,0.00
"CA001125779","1992-10-06",63.50,42.80,0.00,0.00,0.00
"CA001125779","1992-10-07",56.30,25.70,0.00,0.00,0.00
"CA001125779","1992-10-08",66.20,43.70,0.00,0.00,0.00
"CA001125779","1992-10-09",65.30,32.00,0.00,0.00,0.00
"CA001125779","1992-10-10",68.90,35.60,0.00,0.00,0.00
"CA001125779","1992-10-11",69.80,35.60,0.00,0.00,0.00
"CA001125779","1992-10-12",63.50,37.40,10.00,0.00,0.00
"CA001125779","1992-10-13",55.40,37.40,0.00,0.00,0.00
"CA001125779","1992-10-14",44.60,32.00,12.00,0.00,0.00
"CA001125779","1992-10-15",51.80,26.60,0.00,0.00,0.00
"CA001125779","1992-10-16",47.30,27.50,0.00,0.00,0.00
"CA001125779","1992-10-17",55.40,28.40,0.00,0.00,0.00
"CA001125779","1992-10-18",61.70,41.00,0.00,0.00,0.00
"CA001125779","1992-10-19",55.40,44.60,0.00,0.00,0.00
"CA001125779","1992-10-20",64.40,48.20,0.00,0.00,0.00
"CA001125779","1992-10-21",60.80,51.80,10.00,0.00,0.00
"CA001125779","1992-10-22",62.60,49.10,3.00,0.00,0.00
"CA001125779","1992-10-23",71.60,50.00,0.00,0.00,0.00
"CA001125779","1992-10-24",63.50,48.20,0.00,0.00,0.00
"CA001125779","1992-10-25",,37.40,0.00,0.00,0.00
"CA001125779","1992-10-26",59.00,,0.00,0.00,0.00
"CA001125779","1992-10-27",,,0.00,0.00,0.00
"CA001125779","1992-10-28",,,,0.00,0.00
"CA001125779","1992-10-29",,,,0.00,0.00
"CA001125779","1992-10-30",51.80,,,0.00,0.00
"CA001125779","1992-10-31",53.60,43.70,0.00,0.00,0.00
"CA001125779","1992-11-01",55.40,39.20,30.00,0.00,0.00
"CA001125779","1992-11-02",53.60,33.80,0.00,0.00,0.00
"CA001125779","1992-11-03",51.80,27.50,72.00,0.00,0.00
"CA001125779","1992-11-04",46.40,41.00,0.00,0.00,0.00
"CA001125779","1992-11-05",46.40,35.60,12.00,0.00,0.00
"CA001125779","1992-11-06",44.60,40.10,90.00,0.00,0.00
"CA001125779","1992-11-07",48.20,42.80,3.00,0.00,0.00
"CA001125779","1992-11-08",48.20,39.20,10.00,0.00,0.00
"CA001125779","1992-11-09",44.60,35.60,0.00,0.00,0.00
"CA001125779","1992-11-10",39.20,19.40,21.00,0.00,0.00
"CA001125779","1992-11-11",46.40,33.80,7.00,0.00,0.00
"CA001125779","1992-11-12",43.70,35.60,0.00,0.00,0.00
"CA001125779","1992-11-13",46.40,41.00,0.00,0.00,0.00
"CA001125779","1992-11-14",45.50,42.80,0.00,0.00,0.00
"CA001125779","1992-11-15",46.40,41.90,40.00,0.00,0.00
"CA001125779","1992-11-16",44.60,40.10,52.00,0.00,0.00
"CA001125779","1992-11-17",45.50,37.40,12.00,0.00,0.00
"CA001125779","1992-11-18",46.40,40.10,63.00,0.00,0.00
"CA001125779","1992-11-19",41.00,37.40,11.00,0.00,0.00
"CA001125779","1992-11-20",41.00,32.00,52.00,0.00,0.00
"CA001125779","1992-11-21",39.20,30.20,103.00,0.00,0.00
"CA001125779","1992-11-22",42.80,35.60,0.00,0.00,0.00
"CA001125779","1992-11-23",39.20,28.40,0.00,0.00,0.00
"CA001125779","1992-11-24",33.80,23.00,0.00,0.00,0.00
"CA001125779","1992-11-25",34.70,14.00,0.00,0.00,0.00
"CA001125779","1992-11-26",35.60,13.10,0.00,0.00,0.00
"CA001125779","1992-11-27",34.70,31.10,5.00,5.00,
"CA001125779","1992-11-28",40.10,23.90,0.00,0.00,
"CA001125779","1992-11-29",33.80,16.70,0.00,0.00,
"CA001125779","1992-11-30",37.40,30.20,0.00,0.00,
"CA001125779","1992-12-01",28.40,16.70,0.00,0.00,
"CA001125779","1992-12-02",36.50,21.20,0.00,0.00,
"CA001125779","1992-12-03",32.00,14.00,0.00,0.00,
"CA001125779","1992-12-04",30.20,12.20,0.00,0.00,
"CA001125779","1992-12-05",26.60,5.90,0.00,0.00,
"CA001125779","1992-12-06",28.40,15.80,10.00,10.00,
"CA001125779","1992-12-07",31.10,23.00,46.00,46.00,
"CA001125779","1992-12-08",33.80,28.40,,,
"CA001125779","1992-12-09",35.60,30.20,20.00,20.00,
"CA001125779","1992-12-10",32.00,16.70,50.00,50.00,
"CA001125779","1992-12-11",33.80,28.40,13.00,13.00,
"CA001125779","1992-12-12",33.80,26.60,0.00,0.00,
"CA001125779","1992-12-13",33.80,15.80,0.00,0.00,
"CA001125779","1992-12-14",35.60,30.20,10.00,10.00,
"CA001125779","1992-12-15",30.20,21.20,10.00,10.00,
"CA001125779","1992-12-16",29.30,15.80,20.00,20.00,
"CA001125779","1992-12-17",31.10,19.40,0.00,0.00,
"CA001125779","1992-12-18",15.80,9.50,30.00,30.00,
"CA001125779","1992-12-19",23.00,10.40,10.00,10.00,
"CA001125779","1992-12-20",26.60,19.40,0.00,0.00,
"CA001125779","1992-12-21",26.60,15.80,30.00,30.00,
"CA001125779","1992-12-22",35.60,22.10,0.00,0.00,
"CA001125779","1992-12-23",32.00,26.60,0.00,0.00,
"CA001125779","1992-12-24",33.80,18.50,0.00,0.00,
"CA001125779","1992-12-25",30.20,13.10,0.00,0.00,
"CA001125779","1992-12-26",32.00,21.20,70.00,70.00,
"CA001125779","1992-12-27",28.40,24.80,,,
"CA001125779","1992-12-28",14.00,11.30,,,
"CA001125779","1992-12-29",12.20,3.20,,,
"CA001125779","1992-12-30",12.20,9.50,0.00,0.00,
"CA001125779","1992-12-31",12.20,7.70,0.00,0.00,
"CA001125779","1993-01-01",12.20,7.70,0.00,0.00,
"CA001125779","1993-01-02",14.00,6.80,0.00,0.00,
"CA001125779","1993-01-03",17.60,7.70,30.00,30.00,
"CA001125779","1993-01-04",24.80,5.00,0.00,0.00,
"CA001125779","1993-01-05",14.00,9.50,0.00,0.00,
"CA001125779","1993-01-06",11.30,-5.80,0.00,0.00,
"CA001125779","1993-01-07",16.70,-2.20,10.00,10.00,
"CA001125779","1993-01-08",21.20,5.00,0.00,0.00,
"CA001125779","1993-01-09",21.20,15.80,0.00,0.00,
"CA001125779","1993-01-10",11.30,-4.00,0.00,0.00,
"CA001125779","1993-01-11",12.20,8.60,10.00,10.00,
"CA001125779","1993-01-12",12.20,1.40,10.00,10.00,
"CA001125779","1993-01-13",18.50,1.40,0.00,0.00,
"CA001125779","1993-01-14",21.20,14.00,10.00,10.00,
"CA001125779","1993-01-15",23.00,17.60,0.00,0.00,
"CA001125779","1993-01-16",28.40,21.20,0.00,0.00,
"CA001125779","1993-01-17",27.50,21.20,0.00,0.00,
"CA001125779","1993-01-18",30.20,22.10,0.00,0.00,
"CA001125779","1993-01-19",29.30,24.80,60.00,60.00,
"CA001125779","1993-01-20",42.80,25.70,,,
"CA001125779","1993-01-21",41.00,26.60,0.00,0.00,
"CA001125779","1993-01-22",37.40,21.20,0.00,0.00,
"CA001125779","1993-01-23",28.40,0.50,0.00,0.00,
"CA001125779","1993-01-24",33.80,21.20,0.00,0.00,
"CA001125779","1993-01-25",41.00,30.20,0.00,0.00,
"CA001125779","1993-01-26",39.20,30.20,20.00,0.00,
"CA001125779","1993-01-27",39.20,32.90,90.00,0.00,
"CA001125779","1993-01-28",39.20,32.90,0.00,0.00,
"CA001125779","1993-01-29",37.40,32.90,0.00,0.00,
"CA001125779","1993-01-30",37.40,33.80,0.00,0.00,
"CA001125779","1993-01-31",40.10,31.10,0.00,0.00,
"CA001125779","1993-02-01",39.20,32.00,0.00,0.00,
"CA001125779","1993-02-02",36.50,32.00,0.00,0.00,
"CA001125779","1993-02-03",42.80,25.70,0.00,0.00,
"CA001125779","1993-02-04",41.00,21.20,0.00,0.00,
"CA001125779","1993-02-05",41.00,19.40,0.00,0.00,
"CA001125779","1993-02-06",39.20,23.90,0.00,0.00,
"CA001125779","1993-02-07",41.00,28.40,0.00,0.00,
"CA001125779","1993-02-08",45.50,24.80,0.00,0.00,
"CA001125779","1993-02-09",41.00,30.20,11.00,0.00,
"CA001125779","1993-02-10",41.00,34.70,0.00,0.00,
"CA001125779","1993-02-11",43.70,33.80,0.00,0.00,
"CA001125779","1993-02-12",46.40,32.90,0.00,0.00,
"CA001125779","1993-02-13",48.20,22.10,0.00,0.00,
"CA001125779","1993-02-14",42.80,22.10,0.00,0.00,